Location: Newark
(43.4306°N, 0.3089°E)
Time: 11:09:22
(UTC+00:00)

Transit 2A Rocket - Pass Details

Date: 29 August 2019
Orbit: 592 x 911 km, 66.7° (Epoch: 19 September)

Event Time Altitude Azimuth Distance (km) Brightness Sun altitude
Rises 19:48:22 0° 275° (W) 3,341 9.7 -12.5°
Reaches altitude 10° 19:52:57 10° 309° (NW) 2,323 8.9 -13.3°
Maximum altitude 19:54:30 11° 327° (NNW) 2,210 8.4 -13.5°
Drops below altitude 10° 19:56:02 10° 344° (NNW) 2,261 8.1 -13.8°
Sets 20:00:17 0° 19° (NNE) 3,093 8.3 -14.5°
